sat.trackr.live / text

‹ back to catalog

STARLINK-11141 [DTC]

NORAD 60066 · 2024-113H

PAYLOAD ACTIVE UNKNOWN

§ Identity

Operator
Country
US
Launch date
2024-06-19
Launch site
AFWTR
Launch vehicle
Mass (kg)
RCS (m²)

Purposes: comms

External: N2YO · Heavens-Above · Gunter

§ Orbital elements

Epoch: 2026-05-25T02:03:03.089088Z

Period
91.74 min
Inclination
53.1594°
Eccentricity
0.0000763
Mean motion
15.69681891 rev/d
Perigee alt
359.3 km
Apogee alt
360.3 km
Semi-major
6,737.9 km
B*
-9.7770e-6
RAAN
174.3421°
Arg perigee
70.7223°
Mean anomaly
289.3878°
Rev number
11,156

§ Raw data

STARLINK-11141 [DTC]1 60066U 24113H   26145.08545242 -.00001771  00000+0 -97770-5 0  99992 60066  53.1594 174.3421 0000763  70.7223 289.3878 15.69681891111569

JSON: /api/v1/satellites/60066 · /tle

For live sub-satellite position, see the globe view (requires WebGL).

§ Visibility from observer

Set your observer location to see the next 7 days of passes ≥ 10°. The values pass through the URL so the page stays shareable.

No JS? Fill the form by hand. The geolocation button needs JavaScript.